CW0351 Weather Reports


time (UTC)temp
C
wind
direction
speed
KPH
gust
KPH
rain 1hr
cm
rain 24hr
cm
rain mn
cm
humidity
%
barometer
mb
20260510191549 23 0 0.0 8.0 0.00 0.00 0.00 55 1013.3
20260510190058 23 0 0.0 8.0 0.00 0.00 0.00 53 1013.2
20260510184557 23 0 3.2 14.5 0.00 0.00 0.00 57 1013.5
20260510183055 23 281 1.6 22.5 0.00 0.00 0.00 54 1013.5
20260510181559 23 0 0.0 12.9 0.00 0.00 0.00 52 1013.5
20260510180052 22 0 0.0 8.0 0.00 0.00 0.00 52 1013.5
20260510174553 22 219 1.6 16.1 0.00 0.00 0.00 54 1013.5
20260510173055 22 0 0.0 6.4 0.00 0.00 0.00 55 1013.5
20260510171554 22 200 1.6 11.3 0.00 0.00 0.00 55 1013.4
20260510170058 22 0 1.6 11.3 0.00 0.00 0.00 55 1013.4
20260510164558 22 261 3.2 11.3 0.00 0.00 0.00 55 1013.3
20260510163100 22 0 1.6 14.5 0.00 0.00 0.00 58 1013.3
20260510161608 22 0 0.0 12.9 0.00 0.00 0.00 59 1013.2
20260510154607 20 221 3.2 12.9 0.00 0.00 0.00 62 1013.4
20260510153103 20 0 0.0 6.4 0.00 0.00 0.00 69 1013.5
20260510151600 18 0 0.0 11.3 0.00 0.00 0.00 72 1013.5
20260510144554 17 207 0.0 6.4 0.00 0.00 0.00 86 1013.5
20260510143058 16 0 0.0 1.6 0.00 0.00 0.00 93 1013.6
20260510141556 15 0 1.6 9.7 0.00 0.00 0.00 97 1013.5
20260510140056 15 0 0.0 4.8 0.00 0.00 0.00 98 1013.6
20260510134606 13 0 0.0 1.6 0.00 0.00 0.00 98 1013.4
20260510133052 13 0 0.0 0.0 0.00 0.00 0.00 99 1013.4
20260510131554 12 0 0.0 0.0 0.00 0.00 0.00 98 1013.4
20260510130051 12 0 0.0 0.0 0.00 0.00 0.00 98 1013.5
20260510124558 12 0 0.0 0.0 0.00 0.00 0.00 98 1013.7
20260510123053 11 0 0.0 0.0 0.00 0.00 0.00 98 1013.4
20260510121554 11 0 0.0 0.0 0.00 0.00 0.00 98 1013.1
20260510120051 11 0 0.0 0.0 0.00 0.00 0.00 98 1012.9
20260510114556 11 0 0.0 1.6 0.00 0.00 0.00 98 1012.7
20260510113051 11 0 0.0 0.0 0.00 0.00 0.00 98 1012.5
20260510111549 10 0 0.0 0.0 0.00 0.00 0.00 98 1012.4
20260510110058 10 0 0.0 0.0 0.00 0.00 0.00 98 1012.4
20260510104601 10 0 0.0 0.0 0.00 0.00 0.00 98 1012.3
20260510103058 10 0 0.0 0.0 0.00 0.00 0.00 98 1012.1
20260510101603 10 0 0.0 0.0 0.00 0.00 0.00 98 1011.9
20260510100055 10 0 0.0 0.0 0.00 0.00 0.00 98 1012.0
20260510094553 10 0 0.0 0.0 0.00 0.00 0.00 98 1011.8
20260510093054 10 0 0.0 0.0 0.00 0.00 0.00 97 1011.7
20260510091557 10 0 0.0 0.0 0.00 0.00 0.00 98 1011.5
20260510090053 10 0 0.0 0.0 0.00 0.00 0.00 98 1011.6
20260510084552 10 0 0.0 0.0 0.00 0.00 0.00 97 1011.9
20260510083052 10 0 1.6 6.4 0.00 0.00 0.00 98 1011.9
20260510081556 10 0 0.0 0.0 0.00 0.00 0.00 98 1011.9
20260510080049 10 56 0.0 0.0 0.00 0.00 0.00 98 1011.7
20260510074553 9 0 0.0 0.0 0.00 0.00 0.00 98 1011.1
20260510073103 9 0 0.0 0.0 0.00 0.00 0.00 97 1011.1
20260510071559 10 0 0.0 0.0 0.00 0.00 0.00 97 1011.0
20260510070054 10 0 0.0 0.0 0.00 0.00 0.00 97 1011.3
20260510064555 10 0 0.0 0.0 0.00 0.00 0.00 98 1011.2
20260510063104 10 0 0.0 4.8 0.00 0.00 0.00 97 1011.0
20260510061602 10 0 1.6 6.4 0.00 0.00 0.00 97 1010.6
20260510060054 10 0 0.0 0.0 0.00 0.00 0.00 97 1010.8
20260510054601 10 0 0.0 3.2 0.00 0.00 0.00 97 1011.0
20260510053054 10 0 0.0 0.0 0.00 0.00 0.00 97 1011.0
20260510051551 10 0 0.0 0.0 0.00 0.00 0.00 97 1011.0
20260510050056 10 0 0.0 0.0 0.00 0.00 0.00 96 1011.1
20260510044553 10 0 0.0 0.0 0.00 0.00 0.00 96 1011.3
20260510043056 10 0 0.0 0.0 0.00 0.00 0.00 96 1011.3
20260510041617 10 0 0.0 0.0 0.00 0.00 0.00 96 1011.4
20260510040059 11 0 0.0 0.0 0.00 0.00 0.00 96 1011.4
20260510034558 11 0 0.0 0.0 0.00 0.00 0.00 96 1011.3
20260510033106 11 0 0.0 0.0 0.00 0.00 0.00 96 1011.1
20260510031555 11 0 0.0 0.0 0.00 0.00 0.00 96 1011.0
20260510030051 11 0 0.0 0.0 0.00 0.00 0.00 95 1011.0
20260510024608 10 0 0.0 0.0 0.00 0.00 0.00 95 1011.0
20260510023057 10 0 0.0 0.0 0.00 0.00 0.00 94 1010.8
20260510021552 10 0 0.0 0.0 0.00 0.00 0.00 94 1010.8
20260510020052 10 0 0.0 0.0 0.00 0.00 0.00 94 1010.7
20260510014612 10 0 0.0 0.0 0.00 0.00 0.00 93 1010.8
20260510013103 10 0 0.0 0.0 0.00 0.00 0.00 93 1010.8
20260510011556 10 0 0.0 0.0 0.00 0.00 0.00 92 1010.7
20260510010056 11 0 0.0 0.0 0.00 0.00 0.00 91 1010.5
20260510004600 11 0 0.0 0.0 0.00 0.00 0.00 91 1010.4
20260510003053 11 0 0.0 0.0 0.00 0.00 0.00 90 1010.4
20260510001551 12 0 0.0 0.0 0.00 0.00 0.00 90 1010.1
20260510000054 12 0 0.0 0.0 0.00 0.00 0.00 89 1010.2
20260509234554 12 0 0.0 0.0 0.00 0.00 0.00 88 1010.3
20260509233053 12 0 0.0 0.0 0.00 0.00 0.00 87 1010.4
20260509231606 13 0 0.0 0.0 0.00 0.00 0.00 87 1010.2
20260509230054 13 0 0.0 3.2 0.00 0.00 0.00 88 1010.2
20260509224555 13 0 0.0 0.0 0.00 0.00 0.00 88 1010.3
20260509223056 13 105 0.0 6.4 0.00 0.00 0.00 87 1010.3
20260509221550 14 0 0.0 6.4 0.00 0.00 0.00 86 1010.0
20260509220052 14 0 0.0 1.6 0.00 0.00 0.00 87 1010.1
20260509214553 14 0 0.0 4.8 0.00 0.00 0.00 87 1010.2
20260509213050 13 0 0.0 0.0 0.00 0.00 0.00 87 1010.1
20260509211600 14 0 0.0 0.0 0.00 0.00 0.00 89 1010.3
20260509210106 13 0 0.0 0.0 0.00 0.00 0.00 91 1010.2
20260509204558 13 0 0.0 0.0 0.00 0.00 0.00 91 1010.2
20260509203101 13 0 0.0 0.0 0.00 0.00 0.00 91 1010.1
20260509201553 13 0 0.0 0.0 0.00 0.00 0.00 90 1010.3
20260509200057 12 0 0.0 0.0 0.00 0.00 0.00 90 1010.4
20260509194603 13 0 0.0 1.6 0.00 0.00 0.00 90 1010.6
20260509193058 13 0 1.6 9.7 0.00 0.00 0.00 89 1010.9